Time,TemperatureF,DewpointF,PressureIn,WindDirection,WindDirectionDegrees,WindSpeedMPH,WindSpeedGustMPH,Humidity,HourlyPrecipIn,Conditions,Clouds,dailyrainin,SoftwareType,DateUTC
2013-04-07 00:02:00,47.0,44.0,-100.00,NW,320,3.0,4.0,90,0.00,,,-99.99,,2013-04-07 05:02:00,
2013-04-07 00:12:00,46.0,44.0,-100.00,NW,315,4.0,6.0,90,0.00,,,-99.99,,2013-04-07 05:12:00,
2013-04-07 00:22:00,46.0,44.0,-100.00,NW,310,4.0,6.0,90,0.00,,,-99.99,,2013-04-07 05:22:00,
2013-04-07 00:33:00,46.0,44.0,-100.00,NW,325,4.0,9.0,91,0.00,,,-99.99,,2013-04-07 05:33:00,
2013-04-07 00:42:00,46.0,44.0,-100.00,NW,325,4.0,9.0,91,0.00,,,-99.99,,2013-04-07 05:42:00,
2013-04-07 00:52:00,46.0,43.0,-100.00,NNW,335,4.0,9.0,91,0.00,,,-99.99,,2013-04-07 05:52:00,
2013-04-07 01:02:00,46.0,43.0,-100.00,NNW,335,4.0,9.0,91,0.00,,,-99.99,,2013-04-07 06:02:00,
2013-04-07 01:12:00,45.0,43.0,-100.00,NNW,330,3.0,7.0,91,0.00,,,-99.99,,2013-04-07 06:12:00,
2013-04-07 01:22:00,45.0,43.0,-100.00,NNW,340,4.0,5.0,91,0.00,,,-99.99,,2013-04-07 06:22:00,
2013-04-07 01:32:00,44.0,42.0,-100.00,North,350,3.0,4.0,92,0.00,,,-99.99,,2013-04-07 06:32:00,
2013-04-07 01:42:00,44.0,42.0,-100.00,North,350,3.0,4.0,92,0.00,,,-99.99,,2013-04-07 06:42:00,
2013-04-07 01:52:00,44.0,42.0,-100.00,North,350,6.0,6.0,93,0.00,,,-99.99,,2013-04-07 06:52:00,
2013-04-07 02:02:00,44.0,42.0,-100.00,North,350,6.0,6.0,93,0.00,,,-99.99,,2013-04-07 07:02:00,
2013-04-07 02:12:00,43.0,41.0,-100.00,NNW,335,3.0,6.0,93,0.00,,,-99.99,,2013-04-07 07:12:00,
2013-04-07 02:22:00,42.0,41.0,-100.00,NNW,335,2.0,4.0,94,0.00,,,-99.99,,2013-04-07 07:22:00,
2013-04-07 02:32:00,42.0,41.0,-100.00,NW,325,4.0,6.0,95,0.00,,,-99.99,,2013-04-07 07:32:00,
2013-04-07 02:42:00,42.0,41.0,-100.00,NW,325,4.0,6.0,95,0.00,,,-99.99,,2013-04-07 07:42:00,
2013-04-07 02:52:00,42.0,41.0,-100.00,NW,310,4.0,4.0,95,0.00,,,-99.99,,2013-04-07 07:52:00,
2013-04-07 03:02:00,42.0,41.0,-100.00,NW,310,4.0,4.0,95,0.00,,,-99.99,,2013-04-07 08:02:00,
2013-04-07 03:12:00,42.0,40.0,-100.00,NW,320,3.0,6.0,95,0.00,,,-99.99,,2013-04-07 08:12:00,
2013-04-07 03:22:00,41.0,40.0,-100.00,NW,305,2.0,6.0,95,0.00,,,-99.99,,2013-04-07 08:22:00,
2013-04-07 03:32:00,40.0,39.0,-100.00,NNW,335,3.0,4.0,95,0.00,,,-99.99,,2013-04-07 08:32:00,
2013-04-07 03:42:00,40.0,39.0,-100.00,NNW,335,3.0,4.0,95,0.00,,,-99.99,,2013-04-07 08:42:00,
2013-04-07 03:52:00,39.0,38.0,-100.00,NNW,340,3.0,6.0,96,0.00,,,-99.99,,2013-04-07 08:52:00,
2013-04-07 04:02:00,39.0,38.0,-100.00,NNW,340,3.0,6.0,96,0.00,,,-99.99,,2013-04-07 09:02:00,
2013-04-07 04:12:00,39.0,38.0,-100.00,NNW,330,1.0,4.0,96,0.00,,,-99.99,,2013-04-07 09:12:00,
2013-04-07 04:22:00,39.0,38.0,-100.00,NW,310,1.0,3.0,96,0.00,,,-99.99,,2013-04-07 09:22:00,
2013-04-07 04:33:00,39.0,38.0,-100.00,NW,320,2.0,4.0,97,0.00,,,-99.99,,2013-04-07 09:33:00,
2013-04-07 04:43:00,39.0,38.0,-100.00,NW,320,2.0,4.0,97,0.00,,,-99.99,,2013-04-07 09:43:00,
2013-04-07 04:53:00,39.0,38.0,-100.00,NW,325,1.0,3.0,97,0.00,,,-99.99,,2013-04-07 09:53:00,
2013-04-07 05:03:00,39.0,38.0,-100.00,NW,325,1.0,3.0,97,0.00,,,-99.99,,2013-04-07 10:03:00,
2013-04-07 05:13:00,38.0,38.0,-100.00,NNW,345,2.0,3.0,97,0.00,,,-99.99,,2013-04-07 10:13:00,
2013-04-07 05:22:00,38.0,38.0,-100.00,NNW,335,2.0,3.0,97,0.00,,,-99.99,,2013-04-07 10:22:00,
2013-04-07 05:33:00,38.0,37.0,-100.00,NNW,345,2.0,2.0,97,0.00,,,-99.99,,2013-04-07 10:33:00,
2013-04-07 05:42:00,38.0,37.0,-100.00,NNW,345,2.0,2.0,97,0.00,,,-99.99,,2013-04-07 10:42:00,
2013-04-07 05:52:00,38.0,38.0,-100.00,NNW,335,1.0,2.0,98,0.00,,,-99.99,,2013-04-07 10:52:00,
2013-04-07 06:03:00,37.0,37.0,-100.00,North,0,2.0,3.0,98,0.00,,,-99.99,,2013-04-07 11:03:00,
2013-04-07 06:12:00,36.0,35.0,-100.00,North,5,2.0,3.0,98,0.00,,,-99.99,,2013-04-07 11:12:00,
2013-04-07 06:22:00,35.0,35.0,-100.00,NNE,15,2.0,2.0,98,0.00,,,-99.99,,2013-04-07 11:22:00,
2013-04-07 06:32:00,34.0,34.0,-100.00,NNE,15,3.0,3.0,99,0.00,,,-99.99,,2013-04-07 11:32:00,
2013-04-07 06:42:00,34.0,34.0,-100.00,NNE,15,3.0,3.0,99,0.00,,,-99.99,,2013-04-07 11:42:00,
2013-04-07 06:52:00,35.0,35.0,-100.00,NNE,25,2.0,3.0,99,0.00,,,-99.99,,2013-04-07 11:52:00,
2013-04-07 07:02:00,35.0,35.0,-100.00,NE,45,2.0,2.0,99,0.00,,,-99.99,,2013-04-07 12:02:00,
2013-04-07 07:12:00,34.0,34.0,-100.00,NNE,30,2.0,2.0,99,0.00,,,-99.99,,2013-04-07 12:12:00,
2013-04-07 07:22:00,35.0,35.0,-100.00,NE,35,1.0,2.0,99,0.00,,,-99.99,,2013-04-07 12:22:00,
2013-04-07 07:34:00,35.0,35.0,-100.00,NNE,30,2.0,3.0,99,0.00,,,-99.99,,2013-04-07 12:34:00,
2013-04-07 07:42:00,35.0,35.0,-100.00,NNE,30,2.0,3.0,99,0.00,,,-99.99,,2013-04-07 12:42:00,
2013-04-07 07:53:00,36.0,36.0,-100.00,North,10,2.0,3.0,99,0.00,,,-99.99,,2013-04-07 12:53:00,
2013-04-07 08:03:00,36.0,36.0,-100.00,North,10,2.0,3.0,99,0.00,,,-99.99,,2013-04-07 13:03:00,
2013-04-07 08:13:00,36.0,36.0,-100.00,NE,40,3.0,4.0,99,0.00,,,-99.99,,2013-04-07 13:13:00,
2013-04-07 08:22:00,36.0,36.0,-100.00,NE,45,5.0,6.0,99,0.00,,,-99.99,,2013-04-07 13:22:00,
2013-04-07 08:32:00,37.0,37.0,-100.00,NE,35,4.0,6.0,99,0.00,,,-99.99,,2013-04-07 13:32:00,
2013-04-07 08:42:00,37.0,37.0,-100.00,NE,35,4.0,6.0,99,0.00,,,-99.99,,2013-04-07 13:42:00,
2013-04-07 08:52:00,38.0,38.0,-100.00,NE,40,4.0,6.0,99,0.00,,,-99.99,,2013-04-07 13:52:00,
2013-04-07 09:02:00,38.0,38.0,-100.00,NE,40,4.0,6.0,99,0.00,,,-99.99,,2013-04-07 14:02:00,
2013-04-07 09:12:00,38.0,38.0,-100.00,NNE,25,4.0,6.0,99,0.00,,,-99.99,,2013-04-07 14:12:00,
2013-04-07 09:23:00,38.0,38.0,-100.00,NE,40,4.0,6.0,99,0.00,,,-99.99,,2013-04-07 14:23:00,
2013-04-07 09:32:00,39.0,39.0,-100.00,ENE,65,4.0,6.0,99,0.00,,,-99.99,,2013-04-07 14:32:00,
2013-04-07 09:43:00,39.0,39.0,-100.00,ENE,65,4.0,6.0,99,0.00,,,-99.99,,2013-04-07 14:43:00,
2013-04-07 09:53:00,40.0,40.0,-100.00,NE,45,4.0,6.0,99,0.00,,,-99.99,,2013-04-07 14:53:00,
2013-04-07 10:02:00,40.0,40.0,-100.00,NE,45,4.0,6.0,99,0.00,,,-99.99,,2013-04-07 15:02:00,
2013-04-07 10:12:00,40.0,40.0,-100.00,ENE,65,4.0,5.0,99,0.00,,,-99.99,,2013-04-07 15:12:00,
2013-04-07 10:22:00,40.0,40.0,-100.00,ENE,65,4.0,6.0,99,0.00,,,-99.99,,2013-04-07 15:22:00,
2013-04-07 10:34:00,42.0,41.0,-100.00,ENE,60,4.0,6.0,99,0.00,,,-99.99,,2013-04-07 15:34:00,
2013-04-07 10:43:00,42.0,41.0,-100.00,ENE,60,4.0,6.0,99,0.00,,,-99.99,,2013-04-07 15:43:00,
2013-04-07 10:53:00,44.0,42.0,-100.00,NNE,15,4.0,6.0,92,0.00,,,-99.99,,2013-04-07 15:53:00,
2013-04-07 11:03:00,44.0,42.0,-100.00,NNE,15,4.0,6.0,92,0.00,,,-99.99,,2013-04-07 16:03:00,
2013-04-07 11:13:00,44.0,41.0,-100.00,East,90,3.0,6.0,87,0.00,,,-99.99,,2013-04-07 16:13:00,
2013-04-07 11:24:00,46.0,41.0,-100.00,NE,40,1.0,4.0,83,0.00,,,-99.99,,2013-04-07 16:24:00,
2013-04-07 11:33:00,48.0,40.0,-100.00,NE,55,4.0,6.0,74,0.00,,,-99.99,,2013-04-07 16:33:00,
2013-04-07 11:42:00,48.0,40.0,-100.00,NE,55,4.0,6.0,74,0.00,,,-99.99,,2013-04-07 16:42:00,
2013-04-07 11:53:00,49.0,39.0,-100.00,ENE,75,3.0,6.0,68,0.00,,,-99.99,,2013-04-07 16:53:00,
2013-04-07 12:04:00,49.0,39.0,-100.00,ENE,75,3.0,6.0,68,0.00,,,-99.99,,2013-04-07 17:04:00,
2013-04-07 12:13:00,50.0,40.0,-100.00,NE,55,1.0,6.0,66,0.00,,,-99.99,,2013-04-07 17:13:00,
2013-04-07 12:23:00,51.0,39.0,-100.00,ENE,65,4.0,7.0,63,0.00,,,-99.99,,2013-04-07 17:23:00,
2013-04-07 12:33:00,53.0,39.0,-100.00,East,80,6.0,7.0,59,0.00,,,-99.99,,2013-04-07 17:33:00,
2013-04-07 12:42:00,53.0,39.0,-100.00,East,80,6.0,7.0,59,0.00,,,-99.99,,2013-04-07 17:42:00,
2013-04-07 12:52:00,54.0,39.0,-100.00,East,100,4.0,9.0,56,0.00,,,-99.99,,2013-04-07 17:52:00,
2013-04-07 13:02:00,54.0,39.0,-100.00,East,100,4.0,9.0,56,0.00,,,-99.99,,2013-04-07 18:02:00,
2013-04-07 13:13:00,56.0,40.0,-100.00,East,95,4.0,7.0,53,0.00,,,-99.99,,2013-04-07 18:13:00,
2013-04-07 13:22:00,58.0,40.0,-100.00,ESE,115,4.0,8.0,51,0.00,,,-99.99,,2013-04-07 18:22:00,
2013-04-07 13:33:00,59.0,39.0,-100.00,East,80,6.0,9.0,48,0.00,,,-99.99,,2013-04-07 18:33:00,
2013-04-07 13:42:00,59.0,39.0,-100.00,East,80,6.0,9.0,48,0.00,,,-99.99,,2013-04-07 18:42:00,
2013-04-07 13:52:00,60.0,40.0,-100.00,East,80,6.0,8.0,46,0.00,,,-99.99,,2013-04-07 18:52:00,
2013-04-07 14:02:00,60.0,40.0,-100.00,East,80,6.0,8.0,46,0.00,,,-99.99,,2013-04-07 19:02:00,
2013-04-07 14:12:00,61.0,40.0,-100.00,East,90,6.0,9.0,45,0.00,,,-99.99,,2013-04-07 19:12:00,
2013-04-07 14:22:00,61.0,40.0,-100.00,East,85,6.0,7.0,44,0.00,,,-99.99,,2013-04-07 19:22:00,
2013-04-07 14:32:00,62.0,40.0,-100.00,East,95,7.0,9.0,42,0.00,,,-99.99,,2013-04-07 19:32:00,
2013-04-07 14:42:00,62.0,40.0,-100.00,East,95,7.0,9.0,42,0.00,,,-99.99,,2013-04-07 19:42:00,
2013-04-07 14:53:00,63.0,39.0,-100.00,ESE,110,7.0,9.0,41,0.00,,,-99.99,,2013-04-07 19:53:00,
2013-04-07 15:02:00,63.0,39.0,-100.00,ESE,110,7.0,9.0,41,0.00,,,-99.99,,2013-04-07 20:02:00,
2013-04-07 15:13:00,63.0,39.0,-100.00,ESE,110,3.0,7.0,40,0.00,,,-99.99,,2013-04-07 20:13:00,
2013-04-07 15:22:00,64.0,39.0,-100.00,ESE,105,6.0,9.0,39,0.00,,,-99.99,,2013-04-07 20:22:00,
2013-04-07 15:32:00,66.0,40.0,-100.00,SE,145,7.0,10.0,38,0.00,,,-99.99,,2013-04-07 20:32:00,
2013-04-07 15:43:00,66.0,40.0,-100.00,SE,145,7.0,10.0,38,0.00,,,-99.99,,2013-04-07 20:43:00,
2013-04-07 15:52:00,67.0,40.0,-100.00,SE,125,6.0,9.0,38,0.00,,,-99.99,,2013-04-07 20:52:00,
2013-04-07 16:03:00,67.0,40.0,-100.00,SE,125,6.0,9.0,38,0.00,,,-99.99,,2013-04-07 21:03:00,
2013-04-07 16:13:00,67.0,40.0,-100.00,ESE,120,7.0,11.0,37,0.00,,,-99.99,,2013-04-07 21:13:00,
2013-04-07 16:22:00,67.0,40.0,-100.00,ESE,110,6.0,11.0,37,0.00,,,-99.99,,2013-04-07 21:22:00,
2013-04-07 16:34:00,69.0,41.0,-100.00,ESE,120,8.0,11.0,36,0.00,,,-99.99,,2013-04-07 21:34:00,
2013-04-07 16:43:00,69.0,41.0,-100.00,ESE,120,8.0,11.0,36,0.00,,,-99.99,,2013-04-07 21:43:00,
2013-04-07 16:53:00,69.0,40.0,-100.00,SE,145,7.0,10.0,35,0.00,,,-99.99,,2013-04-07 21:53:00,
2013-04-07 17:03:00,69.0,40.0,-100.00,SE,145,7.0,10.0,35,0.00,,,-99.99,,2013-04-07 22:03:00,
2013-04-07 17:13:00,68.0,40.0,-100.00,SE,125,7.0,11.0,35,0.00,,,-99.99,,2013-04-07 22:13:00,
2013-04-07 17:23:00,69.0,40.0,-100.00,SE,130,9.0,12.0,34,0.00,,,-99.99,,2013-04-07 22:23:00,
2013-04-07 17:34:00,69.0,40.0,-100.00,SE,130,8.0,12.0,34,0.00,,,-99.99,,2013-04-07 22:34:00,
2013-04-07 17:52:00,69.0,40.0,-100.00,SE,130,11.0,14.0,34,0.00,,,-99.99,,2013-04-07 22:52:00,
2013-04-07 18:03:00,69.0,40.0,-100.00,SE,130,11.0,14.0,34,0.00,,,-99.99,,2013-04-07 23:03:00,
2013-04-07 18:12:00,69.0,40.0,-100.00,SE,130,11.0,13.0,35,0.00,,,-99.99,,2013-04-07 23:12:00,
2013-04-07 18:22:00,69.0,40.0,-100.00,SE,125,10.0,12.0,35,0.00,,,-99.99,,2013-04-07 23:22:00,
2013-04-07 18:32:00,68.0,40.0,-100.00,ESE,120,9.0,12.0,35,0.00,,,-99.99,,2013-04-07 23:32:00,
2013-04-07 18:42:00,68.0,39.0,-100.00,ESE,115,9.0,12.0,35,0.00,,,-99.99,,2013-04-07 23:42:00,
2013-04-07 18:52:00,68.0,39.0,-100.00,ESE,120,9.0,12.0,35,0.00,,,-99.99,,2013-04-07 23:52:00,
2013-04-07 19:02:00,67.0,39.0,-100.00,SE,125,7.0,12.0,35,0.00,,,-99.99,,2013-04-08 00:02:00,
2013-04-07 19:12:00,67.0,39.0,-100.00,ESE,115,7.0,11.0,36,0.00,,,-99.99,,2013-04-08 00:12:00,
2013-04-07 19:22:00,66.0,39.0,-100.00,ESE,120,7.0,9.0,36,0.00,,,-99.99,,2013-04-08 00:22:00,
2013-04-07 19:32:00,64.0,38.0,-100.00,ESE,110,7.0,10.0,38,0.00,,,-99.99,,2013-04-08 00:32:00,
2013-04-07 19:42:00,64.0,38.0,-100.00,ESE,110,7.0,10.0,38,0.00,,,-99.99,,2013-04-08 00:42:00,
2013-04-07 19:52:00,62.0,38.0,-100.00,ESE,105,7.0,9.0,40,0.00,,,-99.99,,2013-04-08 00:52:00,
2013-04-07 20:02:00,62.0,38.0,-100.00,ESE,105,7.0,9.0,40,0.00,,,-99.99,,2013-04-08 01:02:00,
2013-04-07 20:12:00,62.0,38.0,-100.00,East,95,7.0,11.0,41,0.00,,,-99.99,,2013-04-08 01:12:00,
2013-04-07 20:22:00,59.0,38.0,-100.00,East,100,7.0,9.0,43,0.00,,,-99.99,,2013-04-08 01:22:00,
2013-04-07 20:33:00,58.0,38.0,-100.00,East,95,7.0,8.0,46,0.00,,,-99.99,,2013-04-08 01:33:00,
2013-04-07 20:53:00,59.0,39.0,-100.00,East,95,6.0,9.0,48,0.00,,,-99.99,,2013-04-08 01:53:00,
2013-04-07 21:02:00,59.0,39.0,-100.00,East,95,6.0,9.0,48,0.00,,,-99.99,,2013-04-08 02:02:00,
2013-04-07 21:12:00,58.0,39.0,-100.00,East,100,7.0,9.0,48,0.00,,,-99.99,,2013-04-08 02:12:00,
2013-04-07 21:22:00,58.0,39.0,-100.00,East,95,7.0,9.0,50,0.00,,,-99.99,,2013-04-08 02:22:00,
2013-04-07 21:33:00,58.0,40.0,-100.00,East,95,7.0,9.0,51,0.00,,,-99.99,,2013-04-08 02:33:00,
2013-04-07 21:45:00,58.0,40.0,-100.00,East,95,7.0,9.0,51,0.00,,,-99.99,,2013-04-08 02:45:00,
2013-04-07 21:52:00,56.0,40.0,-100.00,East,95,7.0,9.0,54,0.00,,,-99.99,,2013-04-08 02:52:00,
2013-04-07 22:07:00,56.0,40.0,-100.00,East,95,7.0,9.0,54,0.00,,,-99.99,,2013-04-08 03:07:00,
2013-04-07 22:14:00,56.0,40.0,-100.00,East,95,8.0,10.0,54,0.00,,,-99.99,,2013-04-08 03:14:00,
2013-04-07 22:23:00,56.0,40.0,-100.00,East,90,8.0,11.0,54,0.00,,,-99.99,,2013-04-08 03:23:00,
2013-04-07 22:33:00,57.0,40.0,-100.00,East,95,6.0,9.0,54,0.00,,,-99.99,,2013-04-08 03:33:00,
2013-04-07 22:46:00,57.0,40.0,-100.00,East,95,6.0,9.0,54,0.00,,,-99.99,,2013-04-08 03:46:00,
2013-04-07 22:53:00,56.0,40.0,-100.00,ESE,110,6.0,7.0,55,0.00,,,-99.99,,2013-04-08 03:53:00,
2013-04-07 23:03:00,56.0,40.0,-100.00,ESE,110,6.0,7.0,55,0.00,,,-99.99,,2013-04-08 04:03:00,
2013-04-07 23:12:00,56.0,40.0,-100.00,ESE,105,6.0,8.0,55,0.00,,,-99.99,,2013-04-08 04:12:00,
2013-04-07 23:23:00,56.0,40.0,-100.00,ESE,105,6.0,7.0,55,0.00,,,-99.99,,2013-04-08 04:23:00,
2013-04-07 23:33:00,56.0,41.0,-100.00,ESE,110,6.0,7.0,56,0.00,,,-99.99,,2013-04-08 04:33:00,
2013-04-07 23:43:00,56.0,41.0,-100.00,ESE,110,6.0,7.0,56,0.00,,,-99.99,,2013-04-08 04:43:00,
2013-04-07 23:52:00,57.0,41.0,-100.00,ESE,120,5.0,7.0,56,0.00,,,-99.99,,2013-04-08 04:52:00,